Time,TemperatureF,DewpointF,PressureIn,WindDirection,WindDirectionDegrees,WindSpeedMPH,WindSpeedGustMPH,Humidity,HourlyPrecipIn,Conditions,Clouds,dailyrainin,SoftwareType,DateUTC
2013-08-10 00:00:00,77.5,73.3,30.05,West,264,0.0,0.0,87,0.00,,SCT110,0.00,VWS V14.01,2013-08-10 04:00:00,
2013-08-10 00:01:00,77.5,73.3,30.05,West,264,0.0,0.0,87,0.00,,SCT110,0.00,VWS V14.01,2013-08-10 04:01:00,
2013-08-10 00:06:00,77.2,73.4,30.05,West,264,0.0,0.0,88,0.00,,SCT110,0.00,VWS V14.01,2013-08-10 04:06:00,
2013-08-10 00:11:00,77.0,73.2,30.05,West,264,0.0,1.0,88,0.00,,SCT110,0.00,VWS V14.01,2013-08-10 04:11:00,
2013-08-10 00:16:00,76.9,73.1,30.05,West,264,0.0,0.0,88,0.00,,SCT110,0.00,VWS V14.01,2013-08-10 04:16:00,
2013-08-10 00:21:00,76.7,72.9,30.05,West,264,0.0,0.0,88,0.00,,SCT110,0.00,VWS V14.01,2013-08-10 04:21:00,
2013-08-10 00:26:00,76.5,73.0,30.05,West,264,0.0,0.0,89,0.00,,SCT110,0.00,VWS V14.01,2013-08-10 04:26:00,
2013-08-10 00:31:00,76.3,73.5,30.05,West,264,0.0,0.0,91,0.00,,SCT110,0.00,VWS V14.01,2013-08-10 04:31:00,
2013-08-10 00:36:00,76.1,73.3,30.05,West,264,0.0,0.0,91,0.00,,SCT110,0.00,VWS V14.01,2013-08-10 04:36:00,
2013-08-10 00:41:00,75.8,73.0,30.05,West,264,0.0,0.0,91,0.00,,SCT110,0.00,VWS V14.01,2013-08-10 04:41:00,
2013-08-10 00:47:00,75.6,72.8,30.05,West,264,0.0,0.0,91,0.00,,SCT110,0.00,VWS V14.01,2013-08-10 04:47:00,
2013-08-10 00:52:00,75.4,72.9,30.05,West,264,0.0,0.0,92,0.00,,SCT110,0.00,VWS V14.01,2013-08-10 04:52:00,
2013-08-10 00:57:00,75.3,72.5,30.05,West,264,0.0,0.0,91,0.00,,SCT110,0.00,VWS V14.01,2013-08-10 04:57:00,
2013-08-10 01:02:00,75.3,72.5,30.05,West,264,0.0,0.0,91,0.00,,SCT110,0.00,VWS V14.01,2013-08-10 05:02:00,
2013-08-10 01:07:00,75.3,72.5,30.05,West,264,0.0,0.0,91,0.00,,SCT110,0.00,VWS V14.01,2013-08-10 05:07:00,
2013-08-10 01:12:00,75.3,72.5,30.05,West,264,0.0,0.0,91,0.00,,SCT110,0.00,VWS V14.01,2013-08-10 05:12:00,
2013-08-10 01:17:00,75.3,72.5,30.05,West,264,0.0,0.0,91,0.00,,SCT110,0.00,VWS V14.01,2013-08-10 05:17:00,
2013-08-10 01:22:00,75.3,73.1,30.05,West,267,0.0,0.0,93,0.00,,SCT110,0.00,VWS V14.01,2013-08-10 05:22:00,
2013-08-10 01:27:00,74.9,72.7,30.05,West,267,0.0,0.0,93,0.00,,SCT110,0.00,VWS V14.01,2013-08-10 05:27:00,
2013-08-10 01:32:00,74.7,72.6,30.05,West,267,0.0,0.0,93,0.00,,SCT110,0.00,VWS V14.01,2013-08-10 05:32:00,
2013-08-10 01:37:00,74.6,72.4,30.05,West,267,0.0,0.0,93,0.00,,SCT110,0.00,VWS V14.01,2013-08-10 05:37:00,
2013-08-10 01:42:00,74.4,72.2,30.05,West,267,0.0,0.0,93,0.00,,SCT110,0.00,VWS V14.01,2013-08-10 05:42:00,
2013-08-10 01:47:00,74.3,72.5,30.04,West,267,0.0,0.0,94,0.00,,SCT110,0.00,VWS V14.01,2013-08-10 05:47:00,
2013-08-10 01:52:00,74.1,71.9,30.04,West,267,0.0,0.0,93,0.00,,SCT110,0.00,VWS V14.01,2013-08-10 05:52:00,
2013-08-10 01:57:00,73.9,72.1,30.04,West,267,0.0,0.0,94,0.00,,SCT110,0.00,VWS V14.01,2013-08-10 05:57:00,
2013-08-10 02:02:00,73.7,71.9,30.04,West,267,0.0,0.0,94,0.00,,SCT110,0.00,VWS V14.01,2013-08-10 06:02:00,
2013-08-10 02:07:00,73.6,71.8,30.04,West,267,0.0,0.0,94,0.00,,SCT110,0.00,VWS V14.01,2013-08-10 06:07:00,
2013-08-10 02:12:00,73.4,71.9,30.04,West,267,0.0,0.0,95,0.00,,SCT110,0.00,VWS V14.01,2013-08-10 06:12:00,
2013-08-10 02:17:00,73.3,71.8,30.04,West,267,0.0,0.0,95,0.00,,SCT110,0.00,VWS V14.01,2013-08-10 06:17:00,
2013-08-10 02:22:00,73.1,71.6,30.04,West,267,0.0,0.0,95,0.00,,SCT110,0.00,VWS V14.01,2013-08-10 06:22:00,
2013-08-10 02:27:00,72.9,71.4,30.04,West,267,0.0,0.0,95,0.00,,SCT110,0.00,VWS V14.01,2013-08-10 06:27:00,
2013-08-10 02:32:00,72.9,71.4,30.04,West,267,0.0,0.0,95,0.00,,SCT110,0.00,VWS V14.01,2013-08-10 06:32:00,
2013-08-10 02:37:00,72.8,71.3,30.04,West,267,0.0,0.0,95,0.00,,SCT110,0.00,VWS V14.01,2013-08-10 06:37:00,
2013-08-10 02:42:00,73.0,71.8,30.03,West,267,0.0,0.0,96,0.00,,SCT110,0.00,VWS V14.01,2013-08-10 06:42:00,
2013-08-10 02:47:00,73.1,71.9,30.03,West,267,0.0,0.0,96,0.00,,SCT110,0.00,VWS V14.01,2013-08-10 06:47:00,
2013-08-10 02:52:00,73.1,71.9,30.04,West,267,0.0,0.0,96,0.00,,SCT110,0.00,VWS V14.01,2013-08-10 06:52:00,
2013-08-10 02:57:00,73.0,71.8,30.03,West,267,0.0,0.0,96,0.00,,SCT110,0.00,VWS V14.01,2013-08-10 06:57:00,
2013-08-10 03:02:00,73.1,71.9,30.03,West,267,0.0,0.0,96,0.00,,SCT110,0.00,VWS V14.01,2013-08-10 07:02:00,
2013-08-10 03:07:00,73.0,71.8,30.03,West,267,0.0,0.0,96,0.00,,SCT110,0.00,VWS V14.01,2013-08-10 07:07:00,
2013-08-10 03:12:00,72.9,71.7,30.03,West,267,0.0,0.0,96,0.00,,SCT110,0.00,VWS V14.01,2013-08-10 07:12:00,
2013-08-10 03:17:00,72.9,72.0,30.04,West,267,0.0,0.0,97,0.00,,SCT110,0.00,VWS V14.01,2013-08-10 07:17:00,
2013-08-10 03:22:00,73.0,72.1,30.04,West,267,0.0,0.0,97,0.00,,SCT110,0.00,VWS V14.01,2013-08-10 07:22:00,
2013-08-10 03:27:00,73.0,72.1,30.04,West,267,0.0,1.0,97,0.00,,SCT110,0.00,VWS V14.01,2013-08-10 07:27:00,
2013-08-10 03:32:00,73.0,72.1,30.04,West,267,0.0,0.0,97,0.00,,SCT110,0.00,VWS V14.01,2013-08-10 07:32:00,
2013-08-10 03:37:00,73.3,72.4,30.04,West,267,0.0,0.0,97,0.00,,SCT110,0.00,VWS V14.01,2013-08-10 07:37:00,
2013-08-10 03:42:00,73.3,72.4,30.04,West,267,0.0,0.0,97,0.00,,SCT110,0.00,VWS V14.01,2013-08-10 07:42:00,
2013-08-10 03:47:00,73.3,72.4,30.04,West,267,0.0,0.0,97,0.00,,SCT110,0.00,VWS V14.01,2013-08-10 07:47:00,
2013-08-10 03:52:00,73.3,72.4,30.04,West,267,0.0,0.0,97,0.00,,SCT110,0.00,VWS V14.01,2013-08-10 07:52:00,
2013-08-10 03:57:00,73.3,72.4,30.04,West,267,0.0,0.0,97,0.00,,SCT110,0.00,VWS V14.01,2013-08-10 07:57:00,
2013-08-10 04:02:00,73.3,72.4,30.04,West,267,0.0,0.0,97,0.00,,SCT110,0.00,VWS V14.01,2013-08-10 08:02:00,
2013-08-10 04:07:00,73.3,72.4,30.04,West,267,0.0,0.0,97,0.00,,SCT110,0.00,VWS V14.01,2013-08-10 08:07:00,
2013-08-10 04:12:00,73.3,72.4,30.04,West,267,0.0,0.0,97,0.00,,SCT110,0.00,VWS V14.01,2013-08-10 08:12:00,
2013-08-10 04:17:00,73.3,72.4,30.04,West,267,0.0,0.0,97,0.00,,SCT110,0.00,VWS V14.01,2013-08-10 08:17:00,
2013-08-10 04:22:00,73.3,72.4,30.04,West,267,0.0,0.0,97,0.00,,SCT110,0.00,VWS V14.01,2013-08-10 08:22:00,
2013-08-10 04:27:00,73.3,72.4,30.04,West,267,0.0,0.0,97,0.00,,SCT110,0.00,VWS V14.01,2013-08-10 08:27:00,
2013-08-10 04:32:00,73.3,72.4,30.04,West,267,0.0,0.0,97,0.00,,SCT110,0.00,VWS V14.01,2013-08-10 08:32:00,
2013-08-10 04:37:00,73.3,72.4,30.04,West,267,0.0,0.0,97,0.00,,SCT110,0.00,VWS V14.01,2013-08-10 08:37:00,
2013-08-10 04:42:00,73.3,72.4,30.04,West,267,0.0,0.0,97,0.00,,SCT110,0.00,VWS V14.01,2013-08-10 08:42:00,
2013-08-10 04:47:00,73.3,72.4,30.04,West,267,0.0,0.0,97,0.00,,SCT110,0.00,VWS V14.01,2013-08-10 08:47:00,
2013-08-10 04:52:00,73.3,72.4,30.04,West,267,0.0,0.0,97,0.00,,SCT110,0.00,VWS V14.01,2013-08-10 08:52:00,
2013-08-10 04:57:00,73.3,72.4,30.04,West,267,0.0,0.0,97,0.00,,SCT110,0.00,VWS V14.01,2013-08-10 08:57:00,
2013-08-10 05:02:00,73.3,72.4,30.04,West,267,0.0,0.0,97,0.00,,SCT110,0.00,VWS V14.01,2013-08-10 09:02:00,
2013-08-10 05:07:00,73.3,72.4,30.04,West,267,0.0,0.0,97,0.00,,SCT110,0.00,VWS V14.01,2013-08-10 09:07:00,
2013-08-10 05:12:00,73.3,72.4,30.04,West,267,0.0,0.0,97,0.00,,SCT110,0.00,VWS V14.01,2013-08-10 09:12:00,
2013-08-10 05:17:00,73.3,72.4,30.05,West,267,0.0,0.0,97,0.00,,SCT110,0.00,VWS V14.01,2013-08-10 09:17:00,
2013-08-10 05:22:00,73.3,72.4,30.05,West,267,0.0,0.0,97,0.00,,SCT110,0.00,VWS V14.01,2013-08-10 09:22:00,
2013-08-10 05:27:00,73.3,72.4,30.05,West,267,0.0,0.0,97,0.00,,SCT110,0.00,VWS V14.01,2013-08-10 09:27:00,
2013-08-10 05:32:00,73.3,72.4,30.05,West,267,0.0,0.0,97,0.00,,SCT110,0.00,VWS V14.01,2013-08-10 09:32:00,
2013-08-10 05:37:00,73.3,72.4,30.05,West,267,0.0,0.0,97,0.00,,SCT110,0.00,VWS V14.01,2013-08-10 09:37:00,
2013-08-10 05:42:00,73.3,72.4,30.06,West,267,0.0,0.0,97,0.00,,SCT110,0.00,VWS V14.01,2013-08-10 09:42:00,
2013-08-10 05:47:00,73.3,72.4,30.06,West,267,0.0,0.0,97,0.00,,SCT110,0.00,VWS V14.01,2013-08-10 09:47:00,
2013-08-10 05:52:00,73.3,72.4,30.06,West,267,0.0,0.0,97,0.00,,SCT110,0.00,VWS V14.01,2013-08-10 09:52:00,
2013-08-10 05:57:00,73.3,72.4,30.06,West,267,0.0,0.0,97,0.00,,SCT110,0.00,VWS V14.01,2013-08-10 09:57:00,
2013-08-10 06:02:00,73.3,72.4,30.06,West,267,0.0,0.0,97,0.00,,SCT110,0.00,VWS V14.01,2013-08-10 10:02:00,
2013-08-10 06:07:00,73.3,72.4,30.06,West,267,0.0,0.0,97,0.00,,SCT110,0.00,VWS V14.01,2013-08-10 10:07:00,
2013-08-10 06:12:00,73.3,72.4,30.06,West,267,0.0,0.0,97,0.00,,SCT110,0.00,VWS V14.01,2013-08-10 10:12:00,
2013-08-10 06:17:00,73.3,72.4,30.06,West,267,0.0,0.0,97,0.00,,SCT110,0.00,VWS V14.01,2013-08-10 10:17:00,
2013-08-10 06:22:00,73.3,72.4,30.06,West,267,0.0,0.0,97,0.00,,SCT110,0.00,VWS V14.01,2013-08-10 10:22:00,
2013-08-10 06:27:00,73.3,72.4,30.06,West,267,0.0,0.0,97,0.00,,SCT110,0.00,VWS V14.01,2013-08-10 10:27:00,
2013-08-10 06:32:00,73.3,72.4,30.06,West,267,0.0,0.0,97,0.00,,SCT110,0.00,VWS V14.01,2013-08-10 10:32:00,
2013-08-10 06:37:00,73.3,72.4,30.06,West,267,0.0,0.0,97,0.00,,SCT110,0.00,VWS V14.01,2013-08-10 10:37:00,
2013-08-10 06:41:00,73.3,72.4,30.06,West,267,0.0,0.0,97,0.00,,SCT110,0.00,VWS V14.01,2013-08-10 10:41:00,
2013-08-10 06:46:00,73.3,72.4,30.06,West,267,0.0,0.0,97,0.00,,SCT110,0.00,VWS V14.01,2013-08-10 10:46:00,
2013-08-10 06:51:00,73.3,72.4,30.06,West,267,0.0,0.0,97,0.00,,SCT110,0.00,VWS V14.01,2013-08-10 10:51:00,
2013-08-10 06:56:00,73.3,72.4,30.06,West,267,0.0,0.0,97,0.00,,SCT110,0.00,VWS V14.01,2013-08-10 10:56:00,
2013-08-10 07:01:00,73.3,72.4,30.06,West,267,0.0,0.0,97,0.00,,SCT150,0.00,VWS V14.01,2013-08-10 11:01:00,
2013-08-10 07:06:00,73.3,72.4,30.06,West,267,0.0,0.0,97,0.00,,SCT150,0.00,VWS V14.01,2013-08-10 11:06:00,
2013-08-10 07:11:00,73.3,72.4,30.07,West,267,0.0,0.0,97,0.00,,SCT150,0.00,VWS V14.01,2013-08-10 11:11:00,
2013-08-10 07:16:00,73.3,72.4,30.07,West,267,0.0,0.0,97,0.00,,SCT150,0.00,VWS V14.01,2013-08-10 11:16:00,
2013-08-10 07:21:00,73.3,72.4,30.07,West,267,0.0,0.0,97,0.00,,SCT150,0.00,VWS V14.01,2013-08-10 11:21:00,
2013-08-10 07:26:00,73.3,72.4,30.07,West,267,0.0,0.0,97,0.00,,SCT150,0.00,VWS V14.01,2013-08-10 11:26:00,
2013-08-10 07:31:00,73.3,72.4,30.07,West,267,0.0,0.0,97,0.00,,SCT150,0.00,VWS V14.01,2013-08-10 11:31:00,
2013-08-10 07:36:00,73.3,72.4,30.07,West,267,0.0,0.0,97,0.00,,SCT150,0.00,VWS V14.01,2013-08-10 11:36:00,
2013-08-10 07:41:00,73.3,72.4,30.07,West,267,0.0,0.0,97,0.00,,SCT150,0.00,VWS V14.01,2013-08-10 11:41:00,
2013-08-10 07:46:00,73.3,72.4,30.07,West,267,0.0,0.0,97,0.00,,SCT150,0.00,VWS V14.01,2013-08-10 11:46:00,
2013-08-10 07:51:00,73.3,72.4,30.07,West,267,0.0,0.0,97,0.00,,SCT150,0.00,VWS V14.01,2013-08-10 11:51:00,
2013-08-10 07:56:00,73.3,72.4,30.07,West,267,0.0,0.0,97,0.00,,SCT150,0.00,VWS V14.01,2013-08-10 11:56:00,
2013-08-10 07:57:00,73.3,72.4,30.07,West,267,0.0,0.0,97,0.00,,SCT150,0.00,VWS V14.01,2013-08-10 11:57:00,
2013-08-10 08:02:00,73.3,72.4,30.08,West,267,0.0,0.0,97,0.00,,SCT150,0.00,VWS V14.01,2013-08-10 12:02:00,
2013-08-10 08:07:00,73.3,72.4,30.08,West,267,0.0,0.0,97,0.00,,SCT150,0.00,VWS V14.01,2013-08-10 12:07:00,
2013-08-10 08:12:00,75.5,75.2,30.08,WNW,290,0.0,0.0,99,0.00,,SCT150,0.00,VWS V14.01,2013-08-10 12:12:00,
2013-08-10 08:17:00,75.5,74.9,30.08,WNW,290,0.0,0.0,98,0.00,,SCT150,0.00,VWS V14.01,2013-08-10 12:17:00,
2013-08-10 08:22:00,76.2,75.6,30.08,WNW,291,0.0,0.0,98,0.00,,SCT150,0.00,VWS V14.01,2013-08-10 12:22:00,
2013-08-10 08:27:00,77.6,76.7,30.08,WNW,291,0.0,0.0,97,0.00,,SCT150,0.00,VWS V14.01,2013-08-10 12:27:00,
2013-08-10 08:32:00,78.8,76.9,30.08,WNW,290,0.0,0.0,94,0.00,,SCT150,0.00,VWS V14.01,2013-08-10 12:32:00,
2013-08-10 08:37:00,79.1,74.9,30.08,WNW,302,0.0,0.0,87,0.00,,SCT150,0.00,VWS V14.01,2013-08-10 12:37:00,
2013-08-10 08:42:00,79.8,76.3,30.08,WNW,301,0.0,0.0,89,0.00,,SCT150,0.00,VWS V14.01,2013-08-10 12:42:00,
2013-08-10 08:47:00,80.5,75.6,30.08,North,4,1.0,1.0,85,0.00,,SCT150,0.00,VWS V14.01,2013-08-10 12:47:00,
2013-08-10 08:52:00,81.2,75.9,30.08,North,356,0.0,0.0,84,0.00,,SCT150,0.00,VWS V14.01,2013-08-10 12:52:00,
2013-08-10 08:57:00,81.9,76.6,30.08,North,356,0.0,0.0,84,0.00,,SCT150,0.00,VWS V14.01,2013-08-10 12:57:00,
2013-08-10 09:02:00,82.6,76.2,30.08,NNW,328,0.0,0.0,81,0.00,,SCT150,0.00,VWS V14.01,2013-08-10 13:02:00,
2013-08-10 09:07:00,83.5,76.7,30.08,NNW,328,0.0,0.0,80,0.00,,SCT150,0.00,VWS V14.01,2013-08-10 13:07:00,
2013-08-10 09:12:00,84.3,76.7,30.08,NNW,328,0.0,0.0,78,0.00,,SCT150,0.00,VWS V14.01,2013-08-10 13:12:00,
2013-08-10 09:17:00,84.8,76.8,30.08,NW,312,1.0,1.0,77,0.00,,SCT150,0.00,VWS V14.01,2013-08-10 13:17:00,
2013-08-10 09:22:00,84.7,75.9,30.08,NW,312,0.0,0.0,75,0.00,,SCT150,0.00,VWS V14.01,2013-08-10 13:22:00,
2013-08-10 09:27:00,83.7,75.7,30.08,WNW,290,0.0,0.0,77,0.00,,SCT150,0.00,VWS V14.01,2013-08-10 13:27:00,
2013-08-10 09:32:00,84.0,76.0,30.08,WNW,290,0.0,0.0,77,0.00,,SCT150,0.00,VWS V14.01,2013-08-10 13:32:00,
2013-08-10 09:37:00,84.8,76.4,30.08,WNW,290,0.0,0.0,76,0.00,,SCT150,0.00,VWS V14.01,2013-08-10 13:37:00,
2013-08-10 09:42:00,85.4,76.6,30.08,NW,309,0.0,0.0,75,0.00,,SCT150,0.00,VWS V14.01,2013-08-10 13:42:00,
2013-08-10 09:47:00,86.1,76.0,30.08,West,269,0.0,0.0,72,0.00,,SCT150,0.00,VWS V14.01,2013-08-10 13:47:00,
2013-08-10 09:52:00,85.2,76.4,30.08,West,274,0.0,0.0,75,0.00,,SCT150,0.00,VWS V14.01,2013-08-10 13:52:00,
2013-08-10 09:57:00,84.5,76.1,30.08,West,274,1.0,1.0,76,0.00,,SCT150,0.00,VWS V14.01,2013-08-10 13:57:00,
2013-08-10 10:02:00,85.1,77.1,30.08,West,273,0.0,1.0,77,0.00,,SCT150,0.00,VWS V14.01,2013-08-10 14:02:00,
2013-08-10 10:07:00,85.6,76.8,30.08,North,356,0.0,0.0,75,0.00,,SCT150,0.00,VWS V14.01,2013-08-10 14:07:00,
2013-08-10 10:12:00,86.0,77.6,30.08,North,354,0.0,0.0,76,0.00,,SCT150,0.00,VWS V14.01,2013-08-10 14:12:00,
2013-08-10 10:17:00,86.5,76.8,30.08,WNW,291,0.0,0.0,73,0.00,,SCT150,0.00,VWS V14.01,2013-08-10 14:17:00,
2013-08-10 10:22:00,86.8,77.5,30.08,WNW,291,0.0,0.0,74,0.00,,SCT150,0.00,VWS V14.01,2013-08-10 14:22:00,
2013-08-10 10:27:00,86.6,77.3,30.08,WNW,282,0.0,0.0,74,0.00,,SCT150,0.00,VWS V14.01,2013-08-10 14:27:00,
2013-08-10 10:32:00,87.0,77.3,30.08,WNW,283,0.0,0.0,73,0.00,,SCT150,0.00,VWS V14.01,2013-08-10 14:32:00,
2013-08-10 10:37:00,87.3,77.2,30.08,WNW,284,0.0,0.0,72,0.00,,SCT150,0.00,VWS V14.01,2013-08-10 14:37:00,
2013-08-10 10:42:00,87.6,77.5,30.08,West,270,1.0,1.0,72,0.00,,SCT150,0.00,VWS V14.01,2013-08-10 14:42:00,
2013-08-10 10:47:00,88.0,77.4,30.08,WNW,286,0.0,0.0,71,0.00,,SCT150,0.00,VWS V14.01,2013-08-10 14:47:00,
2013-08-10 10:52:00,88.3,77.3,30.08,West,270,0.0,0.0,70,0.00,,SCT150,0.00,VWS V14.01,2013-08-10 14:52:00,
2013-08-10 10:57:00,88.7,78.1,30.08,West,274,0.0,0.0,71,0.00,,SCT150,0.00,VWS V14.01,2013-08-10 14:57:00,
2013-08-10 11:02:00,88.8,77.3,30.08,NNW,343,0.0,1.0,69,0.00,,SCT150,0.00,VWS V14.01,2013-08-10 15:02:00,
2013-08-10 11:07:00,88.2,77.2,30.08,NW,326,1.0,1.0,70,0.00,,SCT150,0.00,VWS V14.01,2013-08-10 15:07:00,
2013-08-10 11:12:00,87.8,77.2,30.08,NNW,328,0.0,0.0,71,0.00,,SCT150,0.00,VWS V14.01,2013-08-10 15:12:00,
2013-08-10 11:17:00,86.7,77.0,30.09,NNW,328,0.0,0.0,73,0.00,,SCT150,0.00,VWS V14.01,2013-08-10 15:17:00,
2013-08-10 11:22:00,85.9,76.2,30.09,WNW,293,0.0,0.0,73,0.00,,SCT150,0.00,VWS V14.01,2013-08-10 15:22:00,
2013-08-10 11:27:00,85.4,76.2,30.09,West,277,0.0,0.0,74,0.00,,SCT150,0.00,VWS V14.01,2013-08-10 15:27:00,
2013-08-10 11:32:00,85.5,77.1,30.09,West,276,0.0,1.0,76,0.00,,SCT150,0.00,VWS V14.01,2013-08-10 15:32:00,
2013-08-10 11:37:00,86.0,77.2,30.08,West,267,0.0,2.0,75,0.00,,SCT150,0.00,VWS V14.01,2013-08-10 15:37:00,
2013-08-10 11:42:00,87.0,78.1,30.09,West,267,1.0,1.0,75,0.00,,SCT150,0.00,VWS V14.01,2013-08-10 15:42:00,
2013-08-10 11:47:00,87.2,77.9,30.09,West,278,0.0,0.0,74,0.00,,SCT150,0.00,VWS V14.01,2013-08-10 15:47:00,
2013-08-10 11:52:00,87.5,76.9,30.08,West,277,0.0,1.0,71,0.00,,SCT150,0.00,VWS V14.01,2013-08-10 15:52:00,
2013-08-10 11:57:00,87.2,76.2,30.08,West,277,0.0,0.0,70,0.00,,SCT150,0.00,VWS V14.01,2013-08-10 15:57:00,
2013-08-10 12:02:00,87.2,76.2,30.08,West,276,0.0,1.0,70,0.00,,SCT027,0.00,VWS V14.01,2013-08-10 16:02:00,
2013-08-10 12:07:00,86.8,77.9,30.08,NW,316,0.0,0.0,75,0.00,,SCT027,0.00,VWS V14.01,2013-08-10 16:07:00,
2013-08-10 12:12:00,87.1,77.4,30.08,NNW,345,0.0,0.0,73,0.00,,SCT027,0.00,VWS V14.01,2013-08-10 16:12:00,
2013-08-10 12:17:00,87.9,77.3,30.08,WNW,299,0.0,0.0,71,0.00,,SCT027,0.00,VWS V14.01,2013-08-10 16:17:00,
2013-08-10 12:22:00,88.6,75.8,30.08,NNW,331,0.0,1.0,66,0.00,,SCT027,0.00,VWS V14.01,2013-08-10 16:22:00,
2013-08-10 12:27:00,89.2,76.8,30.08,NW,307,0.0,1.0,67,0.00,,SCT027,0.00,VWS V14.01,2013-08-10 16:27:00,
2013-08-10 12:32:00,90.2,76.8,30.08,West,270,1.0,1.0,65,0.00,,SCT027,0.00,VWS V14.01,2013-08-10 16:32:00,
2013-08-10 12:37:00,90.4,75.1,30.08,WSW,256,3.0,3.0,61,0.00,,SCT027,0.00,VWS V14.01,2013-08-10 16:37:00,
2013-08-10 12:42:00,90.3,76.0,30.08,NW,316,1.0,1.0,63,0.00,,SCT027,0.00,VWS V14.01,2013-08-10 16:42:00,
2013-08-10 12:47:00,90.2,76.8,30.07,NW,307,0.0,0.0,65,0.00,,SCT027,0.00,VWS V14.01,2013-08-10 16:47:00,
2013-08-10 12:52:00,90.5,76.2,30.07,NW,308,0.0,0.0,63,0.00,,SCT027,0.00,VWS V14.01,2013-08-10 16:52:00,
2013-08-10 12:57:00,91.1,78.2,30.07,NNW,343,0.0,1.0,66,0.00,,SCT027,0.00,VWS V14.01,2013-08-10 16:57:00,
2013-08-10 13:02:00,91.6,77.2,30.07,NW,307,0.0,0.0,63,0.00,,SCT030,0.00,VWS V14.01,2013-08-10 17:02:00,
2013-08-10 13:07:00,90.8,76.5,30.07,NW,314,0.0,0.0,63,0.00,,SCT030,0.00,VWS V14.01,2013-08-10 17:07:00,
2013-08-10 13:12:00,90.8,76.9,30.07,NW,307,1.0,1.0,64,0.00,,SCT030,0.00,VWS V14.01,2013-08-10 17:12:00,
2013-08-10 13:17:00,91.0,76.7,30.06,WNW,291,1.0,1.0,63,0.00,,SCT030,0.00,VWS V14.01,2013-08-10 17:17:00,
2013-08-10 13:22:00,90.9,76.6,30.06,WNW,293,0.0,1.0,63,0.00,,SCT030,0.00,VWS V14.01,2013-08-10 17:22:00,
2013-08-10 13:27:00,91.1,75.8,30.06,NW,310,0.0,1.0,61,0.00,,SCT030,0.00,VWS V14.01,2013-08-10 17:27:00,
2013-08-10 13:32:00,91.4,76.1,30.06,West,276,0.0,1.0,61,0.00,,SCT030,0.00,VWS V14.01,2013-08-10 17:32:00,
2013-08-10 13:37:00,92.1,76.7,30.06,West,278,0.0,0.0,61,0.00,,SCT030,0.00,VWS V14.01,2013-08-10 17:37:00,
2013-08-10 13:42:00,92.4,77.0,30.05,West,280,0.0,1.0,61,0.00,,SCT030,0.00,VWS V14.01,2013-08-10 17:42:00,
2013-08-10 13:47:00,92.5,77.1,30.05,West,276,0.0,0.0,61,0.00,,SCT030,0.00,VWS V14.01,2013-08-10 17:47:00,
2013-08-10 13:52:00,92.5,75.6,30.05,West,270,1.0,1.0,58,0.00,,SCT030,0.00,VWS V14.01,2013-08-10 17:52:00,
2013-08-10 13:57:00,92.7,75.2,30.05,West,274,0.0,1.0,57,0.00,,SCT030,0.00,VWS V14.01,2013-08-10 17:57:00,
2013-08-10 14:02:00,92.9,75.4,30.05,West,271,1.0,1.0,57,0.00,,SCT036,0.00,VWS V14.01,2013-08-10 18:02:00,
2013-08-10 14:07:00,92.6,74.6,30.04,West,262,0.0,1.0,56,0.00,,SCT036,0.00,VWS V14.01,2013-08-10 18:07:00,
2013-08-10 14:12:00,92.2,75.3,30.04,WNW,290,1.0,1.0,58,0.00,,SCT036,0.00,VWS V14.01,2013-08-10 18:12:00,
2013-08-10 14:17:00,91.9,73.4,30.04,WNW,291,0.0,0.0,55,0.00,,SCT036,0.00,VWS V14.01,2013-08-10 18:17:00,
2013-08-10 14:22:00,91.7,73.8,30.04,West,269,0.0,0.0,56,0.00,,SCT036,0.00,VWS V14.01,2013-08-10 18:22:00,
2013-08-10 14:27:00,91.5,74.7,30.04,West,270,0.0,1.0,58,0.00,,SCT036,0.00,VWS V14.01,2013-08-10 18:27:00,
2013-08-10 14:32:00,91.0,75.7,30.04,West,274,1.0,1.0,61,0.00,,SCT036,0.00,VWS V14.01,2013-08-10 18:32:00,
2013-08-10 14:37:00,90.7,74.9,30.04,WSW,250,0.0,3.0,60,0.00,,SCT036,0.00,VWS V14.01,2013-08-10 18:37:00,
2013-08-10 14:42:00,91.3,76.9,30.04,West,276,0.0,0.0,63,0.00,,SCT036,0.00,VWS V14.01,2013-08-10 18:42:00,
2013-08-10 14:47:00,91.1,74.8,30.04,SW,236,3.0,4.0,59,0.00,,SCT036,0.00,VWS V14.01,2013-08-10 18:47:00,
2013-08-10 14:52:00,89.9,75.1,30.04,WSW,251,0.0,0.0,62,0.00,,SCT036,0.00,VWS V14.01,2013-08-10 18:52:00,
2013-08-10 14:57:00,89.5,74.8,30.03,WSW,255,0.0,0.0,62,0.00,,SCT036,0.00,VWS V14.01,2013-08-10 18:57:00,
2013-08-10 15:02:00,89.1,75.3,30.03,WSW,255,1.0,1.0,64,0.00,,SCT040,0.00,VWS V14.01,2013-08-10 19:02:00,
2013-08-10 15:07:00,87.4,76.8,30.04,West,264,0.0,0.0,71,0.07,,SCT040,0.07,VWS V14.01,2013-08-10 19:07:00,
2013-08-10 15:12:00,85.7,78.4,30.03,NNW,328,0.0,0.0,79,0.07,,SCT040,0.07,VWS V14.01,2013-08-10 19:12:00,
2013-08-10 15:17:00,84.9,79.2,30.03,WNW,291,0.0,1.0,83,0.07,,SCT040,0.07,VWS V14.01,2013-08-10 19:17:00,
2013-08-10 15:22:00,84.9,79.2,30.03,NW,323,0.0,0.0,83,0.07,,SCT040,0.07,VWS V14.01,2013-08-10 19:22:00,
2013-08-10 15:27:00,85.1,80.8,30.03,North,356,0.0,0.0,87,0.07,,SCT040,0.07,VWS V14.01,2013-08-10 19:27:00,
2013-08-10 15:32:00,85.4,79.7,30.02,NNW,345,0.0,0.0,83,0.07,,SCT040,0.07,VWS V14.01,2013-08-10 19:32:00,
2013-08-10 15:37:00,85.5,78.6,30.02,North,11,2.0,3.0,80,0.07,,SCT040,0.07,VWS V14.01,2013-08-10 19:37:00,
2013-08-10 15:42:00,84.9,78.0,30.02,North,359,0.0,1.0,80,0.07,,SCT040,0.07,VWS V14.01,2013-08-10 19:42:00,
2013-08-10 15:47:00,84.3,77.8,30.02,North,5,2.0,2.0,81,0.07,,SCT040,0.07,VWS V14.01,2013-08-10 19:47:00,
2013-08-10 15:52:00,83.6,79.0,30.02,North,360,1.0,2.0,86,0.07,,SCT040,0.07,VWS V14.01,2013-08-10 19:52:00,
2013-08-10 15:57:00,82.4,77.1,30.03,NNW,345,1.0,1.0,84,0.07,,SCT040,0.07,VWS V14.01,2013-08-10 19:57:00,
2013-08-10 16:02:00,81.2,76.3,30.03,NW,323,1.0,1.0,85,0.07,,-RA,0.07,VWS V14.01,2013-08-10 20:02:00,
2013-08-10 16:07:00,80.6,75.7,30.03,North,358,1.0,2.0,85,0.01,,-RA,0.07,VWS V14.01,2013-08-10 20:07:00,
2013-08-10 16:12:00,81.1,76.9,30.03,North,6,2.0,2.0,87,0.00,,-RA,0.07,VWS V14.01,2013-08-10 20:12:00,
2013-08-10 16:17:00,81.4,76.1,30.03,North,6,1.0,2.0,84,0.00,,-RA,0.07,VWS V14.01,2013-08-10 20:17:00,
2013-08-10 16:22:00,81.5,75.8,30.03,North,349,0.0,1.0,83,0.00,,-RA,0.07,VWS V14.01,2013-08-10 20:22:00,
2013-08-10 16:27:00,81.4,76.8,30.04,NNW,341,0.0,1.0,86,0.00,,-RA,0.07,VWS V14.01,2013-08-10 20:27:00,
2013-08-10 16:32:00,81.1,75.8,30.05,North,5,1.0,2.0,84,0.00,,-RA,0.07,VWS V14.01,2013-08-10 20:32:00,
2013-08-10 16:37:00,80.3,75.4,30.05,North,6,0.0,1.0,85,0.00,,-RA,0.07,VWS V14.01,2013-08-10 20:37:00,
2013-08-10 16:42:00,79.3,74.8,30.05,North,4,1.0,2.0,86,0.00,,-RA,0.07,VWS V14.01,2013-08-10 20:42:00,
2013-08-10 16:47:00,78.0,73.8,30.05,NNE,15,4.0,4.0,87,0.00,,-RA,0.07,VWS V14.01,2013-08-10 20:47:00,
2013-08-10 16:52:00,76.9,73.4,30.05,NE,37,3.0,3.0,89,0.01,,-RA,0.08,VWS V14.01,2013-08-10 20:52:00,
2013-08-10 16:57:00,76.3,73.8,30.04,NNW,338,0.0,1.0,92,0.01,,-RA,0.08,VWS V14.01,2013-08-10 20:57:00,
2013-08-10 17:02:00,76.4,73.6,30.04,NNE,14,1.0,3.0,91,0.01,,SCT050,0.08,VWS V14.01,2013-08-10 21:02:00,
2013-08-10 17:07:00,77.3,74.5,30.04,WSW,250,3.0,7.0,91,0.01,,SCT050,0.08,VWS V14.01,2013-08-10 21:07:00,
2013-08-10 17:12:00,77.9,74.7,30.04,SE,136,5.0,5.0,90,0.01,,SCT050,0.08,VWS V14.01,2013-08-10 21:12:00,
2013-08-10 17:17:00,78.5,74.7,30.04,South,179,2.0,3.0,88,0.01,,SCT050,0.08,VWS V14.01,2013-08-10 21:17:00,
2013-08-10 17:23:00,79.4,75.2,30.03,NNE,27,2.0,2.0,87,0.01,,SCT050,0.08,VWS V14.01,2013-08-10 21:23:00,
2013-08-10 17:28:00,80.6,76.0,30.03,NE,34,0.0,2.0,86,0.01,,SCT050,0.08,VWS V14.01,2013-08-10 21:28:00,
2013-08-10 17:33:00,81.8,76.1,30.03,NE,51,2.0,5.0,83,0.01,,SCT050,0.08,VWS V14.01,2013-08-10 21:33:00,
2013-08-10 17:38:00,82.2,75.8,30.03,NE,35,1.0,2.0,81,0.01,,SCT050,0.08,VWS V14.01,2013-08-10 21:38:00,
2013-08-10 17:43:00,82.2,75.4,30.03,North,351,1.0,3.0,80,0.01,,SCT050,0.08,VWS V14.01,2013-08-10 21:43:00,
2013-08-10 17:48:00,82.3,75.9,30.03,North,354,1.0,1.0,81,0.01,,SCT050,0.08,VWS V14.01,2013-08-10 21:48:00,
2013-08-10 17:53:00,82.5,75.7,30.03,NNE,25,0.0,0.0,80,0.00,,SCT050,0.08,VWS V14.01,2013-08-10 21:53:00,
2013-08-10 17:58:00,83.0,75.8,30.03,NNE,25,0.0,0.0,79,0.00,,SCT050,0.08,VWS V14.01,2013-08-10 21:58:00,
2013-08-10 18:03:00,83.6,76.4,30.03,NNE,20,0.0,1.0,79,0.00,,SCT080,0.08,VWS V14.01,2013-08-10 22:03:00,
2013-08-10 18:08:00,84.5,76.9,30.03,NNW,341,0.0,0.0,78,0.00,,SCT080,0.08,VWS V14.01,2013-08-10 22:08:00,
2013-08-10 18:13:00,84.1,76.1,30.04,North,360,0.0,0.0,77,0.00,,SCT080,0.08,VWS V14.01,2013-08-10 22:13:00,
2013-08-10 18:18:00,83.7,75.3,30.04,North,358,0.0,0.0,76,0.00,,SCT080,0.08,VWS V14.01,2013-08-10 22:18:00,
2013-08-10 18:23:00,82.9,75.3,30.04,North,360,0.0,0.0,78,0.00,,SCT080,0.08,VWS V14.01,2013-08-10 22:23:00,
2013-08-10 18:28:00,82.2,75.4,30.04,NNE,12,0.0,1.0,80,0.00,,SCT080,0.08,VWS V14.01,2013-08-10 22:28:00,
2013-08-10 18:33:00,81.7,76.0,30.04,NNE,12,0.0,0.0,83,0.00,,SCT080,0.08,VWS V14.01,2013-08-10 22:33:00,
2013-08-10 18:38:00,81.3,75.7,30.05,North,11,0.0,0.0,83,0.00,,SCT080,0.08,VWS V14.01,2013-08-10 22:38:00,
2013-08-10 18:43:00,80.9,75.3,30.04,North,11,0.0,0.0,83,0.00,,SCT080,0.08,VWS V14.01,2013-08-10 22:43:00,
2013-08-10 18:48:00,80.7,75.1,30.04,North,349,0.0,0.0,83,0.00,,SCT080,0.08,VWS V14.01,2013-08-10 22:48:00,
2013-08-10 18:53:00,80.2,75.3,30.04,West,278,0.0,2.0,85,0.00,,SCT080,0.08,VWS V14.01,2013-08-10 22:53:00,
2013-08-10 18:58:00,79.8,74.9,30.04,West,278,0.0,1.0,85,0.00,,SCT080,0.08,VWS V14.01,2013-08-10 22:58:00,
2013-08-10 19:03:00,79.4,75.2,30.04,North,11,0.0,1.0,87,0.00,,BKN100,0.08,VWS V14.01,2013-08-10 23:03:00,
2013-08-10 19:08:00,79.0,74.8,30.05,WNW,298,0.0,0.0,87,0.00,,BKN100,0.08,VWS V14.01,2013-08-10 23:08:00,
2013-08-10 19:13:00,78.8,74.9,30.06,WNW,297,0.0,0.0,88,0.00,,BKN100,0.08,VWS V14.01,2013-08-10 23:13:00,
2013-08-10 19:18:00,78.7,74.8,30.06,WNW,298,0.0,0.0,88,0.00,,BKN100,0.08,VWS V14.01,2013-08-10 23:18:00,
2013-08-10 19:23:00,78.5,74.7,30.07,WNW,296,0.0,0.0,88,0.00,,BKN100,0.08,VWS V14.01,2013-08-10 23:23:00,
2013-08-10 19:28:00,78.3,74.1,30.07,West,269,0.0,1.0,87,0.00,,BKN100,0.08,VWS V14.01,2013-08-10 23:28:00,
2013-08-10 19:33:00,78.2,74.4,30.06,WNW,283,0.0,0.0,88,0.00,,BKN100,0.08,VWS V14.01,2013-08-10 23:33:00,
2013-08-10 19:38:00,78.0,74.2,30.06,WNW,283,0.0,0.0,88,0.00,,BKN100,0.08,VWS V14.01,2013-08-10 23:38:00,
2013-08-10 19:43:00,77.7,73.9,30.06,North,350,0.0,0.0,88,0.00,,BKN100,0.08,VWS V14.01,2013-08-10 23:43:00,
2013-08-10 19:48:00,77.4,73.2,30.06,North,350,0.0,0.0,87,0.00,,BKN100,0.08,VWS V14.01,2013-08-10 23:48:00,
2013-08-10 19:53:00,77.2,73.4,30.06,North,350,0.0,0.0,88,0.00,,BKN100,0.08,VWS V14.01,2013-08-10 23:53:00,
2013-08-10 19:58:00,77.2,73.7,30.07,North,349,0.0,0.0,89,0.00,,BKN100,0.08,VWS V14.01,2013-08-10 23:58:00,
2013-08-10 20:03:00,77.0,73.5,30.08,NNW,334,0.0,0.0,89,0.00,,SCT065,0.08,VWS V14.01,2013-08-11 00:03:00,
2013-08-10 20:08:00,76.8,73.3,30.08,NNW,334,0.0,0.0,89,0.00,,SCT065,0.08,VWS V14.01,2013-08-11 00:08:00,
2013-08-10 20:13:00,76.7,73.2,30.09,NW,307,0.0,0.0,89,0.00,,SCT065,0.08,VWS V14.01,2013-08-11 00:13:00,
2013-08-10 20:18:00,76.8,73.7,30.08,West,277,0.0,0.0,90,0.00,,SCT065,0.08,VWS V14.01,2013-08-11 00:18:00,
2013-08-10 20:23:00,76.6,73.1,30.08,West,266,0.0,0.0,89,0.00,,SCT065,0.08,VWS V14.01,2013-08-11 00:23:00,
2013-08-10 20:28:00,76.6,73.1,30.08,West,266,0.0,0.0,89,0.00,,SCT065,0.08,VWS V14.01,2013-08-11 00:28:00,
2013-08-10 20:33:00,76.6,73.1,30.08,West,266,0.0,0.0,89,0.00,,SCT065,0.08,VWS V14.01,2013-08-11 00:33:00,
2013-08-10 20:38:00,76.5,73.0,30.09,SW,229,1.0,3.0,89,0.00,,SCT065,0.08,VWS V14.01,2013-08-11 00:38:00,
2013-08-10 20:43:00,76.5,73.0,30.09,West,260,0.0,4.0,89,0.00,,SCT065,0.08,VWS V14.01,2013-08-11 00:43:00,
2013-08-10 20:48:00,76.5,73.3,30.08,WSW,246,0.0,2.0,90,0.00,,SCT065,0.08,VWS V14.01,2013-08-11 00:48:00,
2013-08-10 20:53:00,76.4,73.2,30.07,WSW,246,0.0,0.0,90,0.00,,SCT065,0.08,VWS V14.01,2013-08-11 00:53:00,
2013-08-10 20:58:00,76.4,73.2,30.07,WSW,246,0.0,0.0,90,0.00,,SCT065,0.08,VWS V14.01,2013-08-11 00:58:00,
2013-08-10 21:03:00,76.4,73.2,30.08,WSW,248,0.0,0.0,90,0.00,,BKN065,0.08,VWS V14.01,2013-08-11 01:03:00,
2013-08-10 21:08:00,76.3,73.5,30.08,West,263,0.0,0.0,91,0.00,,BKN065,0.08,VWS V14.01,2013-08-11 01:08:00,
2013-08-10 21:13:00,76.1,73.3,30.07,WNW,287,0.0,0.0,91,0.00,,BKN065,0.08,VWS V14.01,2013-08-11 01:13:00,
2013-08-10 21:18:00,76.0,73.2,30.07,WNW,287,0.0,0.0,91,0.00,,BKN065,0.08,VWS V14.01,2013-08-11 01:18:00,
2013-08-10 21:23:00,75.9,73.1,30.07,WNW,287,0.0,0.0,91,0.00,,BKN065,0.08,VWS V14.01,2013-08-11 01:23:00,
2013-08-10 21:28:00,75.8,73.3,30.07,WNW,287,0.0,0.0,92,0.00,,BKN065,0.08,VWS V14.01,2013-08-11 01:28:00,
2013-08-10 21:33:00,75.8,73.3,30.07,WNW,287,0.0,0.0,92,0.00,,BKN065,0.08,VWS V14.01,2013-08-11 01:33:00,
2013-08-10 21:38:00,75.7,73.5,30.07,WNW,287,0.0,0.0,93,0.00,,BKN065,0.08,VWS V14.01,2013-08-11 01:38:00,
2013-08-10 21:43:00,75.5,73.3,30.06,WNW,286,0.0,0.0,93,0.00,,BKN065,0.08,VWS V14.01,2013-08-11 01:43:00,
2013-08-10 21:48:00,75.4,73.2,30.06,WNW,287,0.0,0.0,93,0.00,,BKN065,0.08,VWS V14.01,2013-08-11 01:48:00,
2013-08-10 21:53:00,75.2,73.0,30.07,WNW,287,0.0,0.0,93,0.00,,BKN065,0.08,VWS V14.01,2013-08-11 01:53:00,
2013-08-10 21:58:00,75.0,73.2,30.07,NNE,19,0.0,2.0,94,0.00,,BKN065,0.08,VWS V14.01,2013-08-11 01:58:00,
2013-08-10 22:03:00,74.8,73.0,30.07,WNW,285,0.0,0.0,94,0.00,,BKN065,0.08,VWS V14.01,2013-08-11 02:03:00,
2013-08-10 22:04:00,74.8,73.0,30.07,WNW,285,0.0,0.0,94,0.00,,BKN065,0.08,VWS V14.01,2013-08-11 02:04:00,
2013-08-10 22:09:00,74.8,73.3,30.07,WNW,285,0.0,0.0,95,0.00,,BKN065,0.08,VWS V14.01,2013-08-11 02:09:00,
2013-08-10 22:14:00,74.6,73.1,30.07,WNW,285,0.0,0.0,95,0.00,,BKN065,0.08,VWS V14.01,2013-08-11 02:14:00,
2013-08-10 22:19:00,74.5,73.0,30.08,WNW,285,0.0,0.0,95,0.00,,BKN065,0.08,VWS V14.01,2013-08-11 02:19:00,
2013-08-10 22:24:00,74.4,72.9,30.08,NW,308,0.0,0.0,95,0.00,,BKN065,0.08,VWS V14.01,2013-08-11 02:24:00,
2013-08-10 22:29:00,74.4,73.2,30.08,NW,306,0.0,0.0,96,0.00,,BKN065,0.08,VWS V14.01,2013-08-11 02:29:00,
2013-08-10 22:34:00,74.3,72.8,30.08,NW,306,0.0,0.0,95,0.00,,BKN065,0.08,VWS V14.01,2013-08-11 02:34:00,
2013-08-10 22:39:00,74.1,72.6,30.08,NW,306,0.0,0.0,95,0.00,,BKN065,0.08,VWS V14.01,2013-08-11 02:39:00,
2013-08-10 22:44:00,74.1,72.9,30.08,NW,306,0.0,0.0,96,0.00,,BKN065,0.08,VWS V14.01,2013-08-11 02:44:00,
2013-08-10 22:49:00,74.0,72.8,30.08,NW,307,0.0,0.0,96,0.00,,BKN065,0.08,VWS V14.01,2013-08-11 02:49:00,
2013-08-10 22:54:00,74.0,72.8,30.08,NW,306,0.0,0.0,96,0.00,,BKN065,0.08,VWS V14.01,2013-08-11 02:54:00,
2013-08-10 22:59:00,73.9,72.7,30.08,NW,306,0.0,0.0,96,0.00,,BKN065,0.08,VWS V14.01,2013-08-11 02:59:00,
2013-08-10 23:04:00,73.9,72.7,30.09,NW,307,0.0,0.0,96,0.00,,FEW120,0.08,VWS V14.01,2013-08-11 03:04:00,
2013-08-10 23:09:00,73.7,72.5,30.08,NW,306,0.0,0.0,96,0.00,,FEW120,0.08,VWS V14.01,2013-08-11 03:09:00,
2013-08-10 23:14:00,73.5,72.3,30.08,NW,307,0.0,0.0,96,0.00,,FEW120,0.08,VWS V14.01,2013-08-11 03:14:00,
2013-08-10 23:19:00,73.6,72.7,30.08,NW,306,0.0,0.0,97,0.00,,FEW120,0.08,VWS V14.01,2013-08-11 03:19:00,
2013-08-10 23:24:00,73.5,72.6,30.08,NW,306,0.0,0.0,97,0.00,,FEW120,0.08,VWS V14.01,2013-08-11 03:24:00,
2013-08-10 23:29:00,73.5,72.6,30.08,NW,306,0.0,0.0,97,0.00,,FEW120,0.08,VWS V14.01,2013-08-11 03:29:00,
2013-08-10 23:34:00,73.7,72.8,30.08,NW,306,0.0,0.0,97,0.00,,FEW120,0.08,VWS V14.01,2013-08-11 03:34:00,
2013-08-10 23:39:00,73.6,72.7,30.08,NW,306,0.0,0.0,97,0.00,,FEW120,0.08,VWS V14.01,2013-08-11 03:39:00,
2013-08-10 23:44:00,73.5,72.6,30.08,NW,307,0.0,0.0,97,0.00,,FEW120,0.08,VWS V14.01,2013-08-11 03:44:00,
2013-08-10 23:49:00,73.5,72.6,30.08,NW,306,0.0,0.0,97,0.00,,FEW120,0.08,VWS V14.01,2013-08-11 03:49:00,
2013-08-10 23:54:00,73.4,72.5,30.08,NW,307,0.0,0.0,97,0.00,,FEW120,0.08,VWS V14.01,2013-08-11 03:54:00,
2013-08-10 23:59:00,73.3,72.4,30.08,NW,307,0.0,0.0,97,0.00,,FEW120,0.08,VWS V14.01,2013-08-11 03:59:00,